Regional Weather Roundup
Issued by NWS Sioux Falls, SD

Home | Current Version | Previous Version | Text Only | Print | Product List | Glossary On
Versions: 1 2 3 4 5 6 7 8 9 10 11 12 13 14 15 16 17 18 19 20 21 22 23 24 25 26 27 28 29 30 31 32 33 34 35 36 37 38 39 40 41 42 43 44 45 46 47 48 49 50
000
ASUS43 KFSD 201010
RWRFSD

WEATHER ROUNDUP FOR SE SOUTH DAKOTA/SW MINNESOTA/NW IOWA
NATIONAL WEATHER SERVICE SIOUX FALLS SD
500 AM CDT SAT SEP 20 2014

NOTE: "FAIR" INDICATES FEW OR NO CLOUDS BELOW 12,000 FEET WITH NO
SIGNIFICANT WEATHER AND OR OBSTRUCTIONS TO VISIBILITY.


SDZ038>040-050-052>070-201100-
SOUTHEAST SOUTH DAKOTA

CITY           SKY/WX    TMP DP  RH WIND       PRES   REMARKS
CHAMBERLAIN    CLOUDY    62  55  77 NW7       29.89F
HURON          PTCLDY    55  51  86 NW6       29.86R
MADISON        FAIR      63  57  82 NW3       29.86R
MITCHELL       LGT RAIN  63  58  83 W5        29.86S
SIOUX FALLS    MOCLDY    64  55  72 NW9       29.83R
WINNER         LGT RAIN  63  56  78 SW8       29.92S
YANKTON        CLEAR     64  57  77 SW5       29.85R
$$

MNZ071-072-080-081-089-090-097-098-201100-
SOUTHWEST MINNESOTA

CITY           SKY/WX    TMP DP  RH WIND       PRES   REMARKS
FAIRMONT       CLOUDY    64  57  77 SW9       29.81R
JACKSON        MOCLDY    66  63  88 W8        29.81R
LUVERNE        MOCLDY    63  57  82 CALM      29.82R
MARSHALL       MOCLDY    63  54  72 NW9       29.79R
MONTEVIDEO     PTCLDY    61  55  82 N8        29.79R
PIPESTONE      LGT RAIN  64  57  77 N6        29.83S
REDWOOD FALLS  PTCLDY    63  57  81 W8        29.76R
TRACY          MOCLDY    65  57  75 NW6       29.81R
WINDOM         MOCLDY    64  63  94 W6        29.81R
WORTHINGTON    MOCLDY    63  63 100 W3        29.83R
$$

IAZ001>003-012>014-020>022-031-032-NEZ013-014-SDZ071-201100-
NORTHWEST IOWA

CITY           SKY/WX    TMP DP  RH WIND       PRES   REMARKS
CHEROKEE       CLOUDY    64  64 100 S3        29.82R
DENISON        LGT RAIN  70  68  94 S9G16     29.81F
ESTHERVILLE    CLOUDY    63  63 100 SW6       29.80R
LE MARS        CLOUDY    64  64 100 CALM      29.83R
ORANGE CITY    PTCLDY    64  61  88 SW3       29.83R
SHELDON        MOCLDY    61  61 100 SW5       29.81R
SIOUX CITY     MOCLDY    63  62  97 N6        29.83R
SPENCER        CLOUDY    65  62  90 W6        29.81R
$$

ABBREVIATIONS USED IN REMARKS
   TC - TEMPERATURE IN CELSIUS
  WCI - WIND CHILL INDEX
   HX - HEAT INDEX
  VSB - VISIBILITY



USA.gov is the U.S. government's official web portal to all federal, state and local government web resources and services.